Gunnison, CO

3:33 AM MDT on May 25, 2018 (GMT -0600)
Gunnison County

Weather History for KGUC - September, 2011

Change the Weather History Date:

Sunday, September 11, 2011

  Actual Average Record
Temperature  
Mean Temperature 52 °F -  
Max Temperature 66 °F 68 °F 78 °F (1998)
Min Temperature 37 °F 35 °F 26 °F (2001)
Degree Days  
Heating Degree Days 14    
Growing Degree Days 2 (Base 50)    
Moisture  
Dew Point 37 °F    
Average Humidity 61    
Maximum Humidity 82    
Minimum Humidity 35    
Precipitation  
Precipitation 0.00 in - - ()
Sea Level Pressure  
Sea Level Pressure 30.44 in    
Wind  
Wind Speed 5 mph (NNE)    
Max Wind Speed 17 mph    
Max Gust Speed 23 mph    
Visibility 10 miles    
Events      
Averages and records for this station are not official NWS values.
T = Trace of Precipitation, MM = Missing Value Source: NWS Daily Summary

Daily Weather History Graph

Daily Weather History Graph

Search for Another Location

Airport or City:

Astronomy

Sep. 11, 2011 Rise Set
Actual Time 6:45 AM MDT 7:22 PM MDT
Civil Twilight 6:18 AM MDT 7:49 PM MDT
Nautical Twilight 5:47 AM MDT 8:20 PM MDT
Astronomical Twilight 5:14 AM MDT 8:52 PM MDT
Moon 6:46 PM MDT (9/11) 6:07 AM MDT (9/11)
Length of Visible Light 13h 30m
Length of Day
12h 36m
Full, 100% of the Moon is Illuminated
Sep 11
Full
Sep 12
Full
Sep 20
Last Quarter
Sep 27
New
Oct 3
First Quarter

Hourly Weather History & Observations

Time (MDT) Temp. Windchill Dew Point Humidity Pressure Visibility Wind Dir Wind Speed Gust Speed Precip Events Conditions
12:35 AM 46.4 °F 42.9 °F 35.6 °F 66% 30.43 in 10.0 mi North 6.9 mph - N/A   Clear
1:15 AM 44.6 °F 39.7 °F 33.8 °F 66% 30.43 in 10.0 mi North 9.2 mph - N/A   Clear
1:35 AM 44.6 °F 40.7 °F 33.8 °F 66% 30.44 in 10.0 mi North 6.9 mph - N/A   Clear
1:55 AM 44.6 °F 40.2 °F 33.8 °F 66% 30.43 in 10.0 mi North 8.1 mph - N/A   Clear
2:15 AM 42.8 °F 38.6 °F 33.8 °F 70% 30.44 in 10.0 mi North 6.9 mph - N/A   Clear
2:35 AM 42.8 °F 38.0 °F 33.8 °F 70% 30.44 in 10.0 mi North 8.1 mph - N/A   Scattered Clouds
2:55 AM 44.6 °F 39.7 °F 33.8 °F 66% 30.43 in 10.0 mi North 9.2 mph - N/A   Mostly Cloudy
3:15 AM 42.8 °F 37.5 °F 33.8 °F 70% 30.43 in 10.0 mi North 9.2 mph - N/A   Scattered Clouds
3:35 AM 42.8 °F 38.0 °F 33.8 °F 70% 30.43 in 10.0 mi North 8.1 mph - N/A   Clear
3:55 AM 42.8 °F 41.1 °F 32.0 °F 66% 30.43 in 10.0 mi East 3.5 mph - N/A   Clear
4:15 AM 41.0 °F 35.8 °F 32.0 °F 70% 30.43 in 10.0 mi NNE 8.1 mph - N/A   Clear
4:55 AM 39.2 °F 37.0 °F 32.0 °F 75% 30.44 in 10.0 mi East 3.5 mph - N/A   Clear
5:15 AM 39.2 °F - 32.0 °F 75% 30.45 in 10.0 mi Calm Calm - N/A   Clear
5:35 AM 39.2 °F 37.0 °F 32.0 °F 75% 30.45 in 10.0 mi East 3.5 mph - N/A   Clear
6:15 AM 37.4 °F 34.9 °F 32.0 °F 81% 30.46 in 10.0 mi ENE 3.5 mph - N/A   Partly Cloudy
6:35 AM 37.4 °F - 30.2 °F 75% 30.47 in 10.0 mi Calm Calm - N/A   Clear
6:55 AM 37.4 °F 33.8 °F 30.2 °F 75% 30.48 in 10.0 mi NE 4.6 mph - N/A   Partly Cloudy
7:15 AM 37.4 °F - 30.2 °F 75% 30.49 in 10.0 mi Calm Calm - N/A   Scattered Clouds
7:35 AM 37.4 °F - 30.2 °F 75% 30.49 in 10.0 mi Calm Calm - N/A   Scattered Clouds
7:55 AM 37.4 °F 33.8 °F 32.0 °F 81% 30.49 in 10.0 mi East 4.6 mph - N/A   Mostly Cloudy
8:15 AM 41.0 °F - 33.8 °F 76% 30.50 in 10.0 mi Calm Calm - N/A   Overcast
8:35 AM 42.8 °F - 33.8 °F 70% 30.49 in 10.0 mi Calm Calm - N/A   Overcast
8:55 AM 42.8 °F - 33.8 °F 70% 30.50 in 10.0 mi Calm Calm - N/A   Overcast
9:15 AM 44.6 °F - 33.8 °F 66% 30.50 in 10.0 mi Calm Calm - N/A   Overcast
9:35 AM 46.4 °F - 35.6 °F 66% 30.51 in 10.0 mi Calm Calm - N/A   Overcast
9:55 AM 48.2 °F - 35.6 °F 62% 30.50 in 10.0 mi Calm Calm - N/A   Overcast
10:15 AM 48.2 °F - 35.6 °F 62% 30.50 in 10.0 mi Calm Calm - N/A   Overcast
10:35 AM 51.8 °F - 35.6 °F 54% 30.50 in 10.0 mi Calm Calm - N/A   Overcast
10:55 AM 51.8 °F - 35.6 °F 54% 30.49 in 10.0 mi Calm Calm - N/A   Overcast
11:35 AM 57.2 °F - 37.4 °F 48% 30.47 in 10.0 mi ESE 3.5 mph - N/A   Clear
11:55 AM 60.8 °F - 37.4 °F 42% 30.47 in 10.0 mi North 4.6 mph - N/A   Mostly Cloudy
12:15 PM 60.8 °F - 39.2 °F 45% 30.46 in 10.0 mi North 3.5 mph - N/A   Partly Cloudy
12:35 PM 62.6 °F - 39.2 °F 42% 30.45 in 10.0 mi North 6.9 mph - N/A   Clear
1:15 PM 64.4 °F - 37.4 °F 37% 30.43 in 10.0 mi NE 5.8 mph - N/A   Scattered Clouds
1:35 PM 64.4 °F - 37.4 °F 37% 30.42 in 10.0 mi NE 3.5 mph - N/A   Mostly Cloudy
1:55 PM 64.4 °F - 37.4 °F 37% 30.40 in 10.0 mi Calm Calm - N/A   Scattered Clouds
2:15 PM 66.2 °F - 37.4 °F 35% 30.39 in 10.0 mi Calm Calm - N/A   Clear
2:35 PM 66.2 °F - 37.4 °F 35% 30.38 in 10.0 mi SE 5.8 mph - N/A   Clear
2:55 PM 66.2 °F - 37.4 °F 35% 30.37 in 10.0 mi SSE 4.6 mph - N/A   Mostly Cloudy
3:15 PM 66.2 °F - 37.4 °F 35% 30.37 in 10.0 mi SE 4.6 mph - N/A   Overcast
3:55 PM 66.2 °F - 37.4 °F 35% 30.36 in 10.0 mi North 8.1 mph - N/A   Mostly Cloudy
4:15 PM 66.2 °F - 37.4 °F 35% 30.35 in 10.0 mi North 12.7 mph - N/A   Mostly Cloudy
4:35 PM 64.4 °F - 39.2 °F 40% 30.36 in 10.0 mi North 11.5 mph - N/A   Overcast
4:55 PM 62.6 °F - 39.2 °F 42% 30.36 in 10.0 mi NNW 8.1 mph - N/A   Overcast
5:15 PM 62.6 °F - 39.2 °F 42% 30.36 in 10.0 mi North 8.1 mph - N/A   Overcast
5:35 PM 62.6 °F - 39.2 °F 42% 30.38 in 10.0 mi SSW 12.7 mph 16.1 mph N/A   Overcast
5:55 PM 59.0 °F - 42.8 °F 55% 30.40 in 10.0 mi WSW 17.3 mph 23.0 mph N/A   Overcast
6:15 PM 57.2 °F - 42.8 °F 59% 30.41 in 10.0 mi WSW 8.1 mph - N/A   Overcast
6:35 PM 59.0 °F - 39.2 °F 48% 30.41 in 10.0 mi SW 10.4 mph - N/A   Mostly Cloudy
7:15 PM 57.2 °F - 42.8 °F 59% 30.42 in 10.0 mi SW 5.8 mph - N/A   Overcast
7:35 PM 55.4 °F - 44.6 °F 67% 30.42 in 9.0 mi SSW 5.8 mph - N/A   Overcast
7:55 PM 55.4 °F - 44.6 °F 67% 30.43 in 10.0 mi SE 3.5 mph - N/A   Overcast
8:15 PM 55.4 °F - 42.8 °F 63% 30.44 in 10.0 mi Calm Calm - N/A   Overcast
8:35 PM 53.6 °F - 44.6 °F 72% 30.44 in 10.0 mi Calm Calm - N/A   Overcast
8:55 PM 53.6 °F - 44.6 °F 72% 30.45 in 10.0 mi WSW 11.5 mph 18.4 mph N/A   Overcast
9:35 PM 53.6 °F - 44.6 °F 72% 30.46 in 10.0 mi Calm Calm - N/A   Partly Cloudy
9:55 PM 53.6 °F - 44.6 °F 72% 30.46 in 10.0 mi North 3.5 mph - N/A   Clear
10:15 PM 51.8 °F - 46.4 °F 82% 30.46 in 10.0 mi NW 6.9 mph - N/A   Clear
10:35 PM 50.0 °F - 42.8 °F 76% 30.47 in 10.0 mi North 6.9 mph - N/A   Clear
10:55 PM 48.2 °F - 42.8 °F 82% 30.47 in 10.0 mi NNW 6.9 mph - N/A   Clear
11:15 PM 48.2 °F - 42.8 °F 82% 30.47 in 10.0 mi North 4.6 mph - N/A   Clear
11:35 PM 48.2 °F - 42.8 °F 82% 30.47 in 10.0 mi Calm Calm - N/A   Clear
11:55 PM 46.4 °F 43.5 °F 41.0 °F 81% 30.47 in 10.0 mi NNW 5.8 mph - N/A   Clear